Index of /20260430/WXO-DD/model_gdps/15km/00/108
Name Last modified Size Description
Parent Directory -
20260430T00Z_MSC_GDPS_AbsoluteVorticity_IsbL-0200_LatLon0.15_PT108H.grib2 2026-04-30 04:30 1.5M
20260430T00Z_MSC_GDPS_AbsoluteVorticity_IsbL-0250_LatLon0.15_PT108H.grib2 2026-04-30 04:30 1.6M
20260430T00Z_MSC_GDPS_AbsoluteVorticity_IsbL-0500_LatLon0.15_PT108H.grib2 2026-04-30 04:30 1.4M
20260430T00Z_MSC_GDPS_AbsoluteVorticity_IsbL-0700_LatLon0.15_PT108H.grib2 2026-04-30 04:30 1.3M
20260430T00Z_MSC_GDPS_AbsoluteVorticity_IsbL-0850_LatLon0.15_PT108H.grib2 2026-04-30 04:30 1.6M
20260430T00Z_MSC_GDPS_AirTemp-Max_AGL-2m_LatLon0.15_PT108H.grib2 2026-04-30 04:30 740K
20260430T00Z_MSC_GDPS_AirTemp-Min_AGL-2m_LatLon0.15_PT108H.grib2 2026-04-30 04:30 789K
20260430T00Z_MSC_GDPS_AirTemp_AGL-120m_LatLon0.15_PT108H.grib2 2026-04-30 04:30 905K
20260430T00Z_MSC_GDPS_AirTemp_AGL-2m_LatLon0.15_PT108H.grib2 2026-04-30 04:30 1.0M
20260430T00Z_MSC_GDPS_AirTemp_AGL-40m_LatLon0.15_PT108H.grib2 2026-04-30 04:30 806K
20260430T00Z_MSC_GDPS_AirTemp_AGL-80m_LatLon0.15_PT108H.grib2 2026-04-30 04:30 912K
20260430T00Z_MSC_GDPS_AirTemp_IsbL-0001_LatLon0.15_PT108H.grib2 2026-04-30 04:30 653K
20260430T00Z_MSC_GDPS_AirTemp_IsbL-0005_LatLon0.15_PT108H.grib2 2026-04-30 04:30 685K
20260430T00Z_MSC_GDPS_AirTemp_IsbL-0010_LatLon0.15_PT108H.grib2 2026-04-30 04:30 697K
20260430T00Z_MSC_GDPS_AirTemp_IsbL-0020_LatLon0.15_PT108H.grib2 2026-04-30 04:30 789K
20260430T00Z_MSC_GDPS_AirTemp_IsbL-0030_LatLon0.15_PT108H.grib2 2026-04-30 04:30 837K
20260430T00Z_MSC_GDPS_AirTemp_IsbL-0050_LatLon0.15_PT108H.grib2 2026-04-30 04:30 813K
20260430T00Z_MSC_GDPS_AirTemp_IsbL-0100_LatLon0.15_PT108H.grib2 2026-04-30 04:30 968K
20260430T00Z_MSC_GDPS_AirTemp_IsbL-0150_LatLon0.15_PT108H.grib2 2026-04-30 04:30 967K
20260430T00Z_MSC_GDPS_AirTemp_IsbL-0175_LatLon0.15_PT108H.grib2 2026-04-30 04:30 956K
20260430T00Z_MSC_GDPS_AirTemp_IsbL-0200_LatLon0.15_PT108H.grib2 2026-04-30 04:30 972K
20260430T00Z_MSC_GDPS_AirTemp_IsbL-0225_LatLon0.15_PT108H.grib2 2026-04-30 04:30 1.0M
20260430T00Z_MSC_GDPS_AirTemp_IsbL-0250_LatLon0.15_PT108H.grib2 2026-04-30 04:30 1.0M
20260430T00Z_MSC_GDPS_AirTemp_IsbL-0275_LatLon0.15_PT108H.grib2 2026-04-30 04:30 1.0M
20260430T00Z_MSC_GDPS_AirTemp_IsbL-0300_LatLon0.15_PT108H.grib2 2026-04-30 04:30 944K
20260430T00Z_MSC_GDPS_AirTemp_IsbL-0350_LatLon0.15_PT108H.grib2 2026-04-30 04:30 924K
20260430T00Z_MSC_GDPS_AirTemp_IsbL-0400_LatLon0.15_PT108H.grib2 2026-04-30 04:30 938K
20260430T00Z_MSC_GDPS_AirTemp_IsbL-0450_LatLon0.15_PT108H.grib2 2026-04-30 04:30 963K
20260430T00Z_MSC_GDPS_AirTemp_IsbL-0500_LatLon0.15_PT108H.grib2 2026-04-30 04:30 1.0M
20260430T00Z_MSC_GDPS_AirTemp_IsbL-0550_LatLon0.15_PT108H.grib2 2026-04-30 04:30 802K
20260430T00Z_MSC_GDPS_AirTemp_IsbL-0600_LatLon0.15_PT108H.grib2 2026-04-30 04:30 894K
20260430T00Z_MSC_GDPS_AirTemp_IsbL-0650_LatLon0.15_PT108H.grib2 2026-04-30 04:30 921K
20260430T00Z_MSC_GDPS_AirTemp_IsbL-0700_LatLon0.15_PT108H.grib2 2026-04-30 04:30 958K
20260430T00Z_MSC_GDPS_AirTemp_IsbL-0750_LatLon0.15_PT108H.grib2 2026-04-30 04:30 1.0M
20260430T00Z_MSC_GDPS_AirTemp_IsbL-0800_LatLon0.15_PT108H.grib2 2026-04-30 04:30 1.1M
20260430T00Z_MSC_GDPS_AirTemp_IsbL-0850_LatLon0.15_PT108H.grib2 2026-04-30 04:30 1.1M
20260430T00Z_MSC_GDPS_AirTemp_IsbL-0875_LatLon0.15_PT108H.grib2 2026-04-30 04:30 1.2M
20260430T00Z_MSC_GDPS_AirTemp_IsbL-0900_LatLon0.15_PT108H.grib2 2026-04-30 04:30 1.1M
20260430T00Z_MSC_GDPS_AirTemp_IsbL-0925_LatLon0.15_PT108H.grib2 2026-04-30 04:30 1.1M
20260430T00Z_MSC_GDPS_AirTemp_IsbL-0950_LatLon0.15_PT108H.grib2 2026-04-30 04:30 1.1M
20260430T00Z_MSC_GDPS_AirTemp_IsbL-0970_LatLon0.15_PT108H.grib2 2026-04-30 04:30 1.1M
20260430T00Z_MSC_GDPS_AirTemp_IsbL-0985_LatLon0.15_PT108H.grib2 2026-04-30 04:30 1.1M
20260430T00Z_MSC_GDPS_AirTemp_IsbL-1000_LatLon0.15_PT108H.grib2 2026-04-30 04:30 1.1M
20260430T00Z_MSC_GDPS_AirTemp_IsbL-1015_LatLon0.15_PT108H.grib2 2026-04-30 04:30 1.1M
20260430T00Z_MSC_GDPS_Albedo_Sfc_LatLon0.15_PT108H.grib2 2026-04-30 04:30 240K
20260430T00Z_MSC_GDPS_CAPE_Sfc_LatLon0.15_PT108H.grib2 2026-04-30 04:30 3.8M
20260430T00Z_MSC_GDPS_CIN_Sfc_LatLon0.15_PT108H.grib2 2026-04-30 04:30 2.9M
20260430T00Z_MSC_GDPS_CloudWater_EAtm_LatLon0.15_PT108H.grib2 2026-04-30 04:30 535K
20260430T00Z_MSC_GDPS_ConvectivePrecip-Accum_Sfc_LatLon0.15_PT108H.grib2 2026-04-30 04:30 3.4M
20260430T00Z_MSC_GDPS_DewPointDepression_AGL-2m_LatLon0.15_PT108H.grib2 2026-04-30 04:30 759K
20260430T00Z_MSC_GDPS_DewPointDepression_IsbL-0010_LatLon0.15_PT108H.grib2 2026-04-30 04:30 70K
20260430T00Z_MSC_GDPS_DewPointDepression_IsbL-0020_LatLon0.15_PT108H.grib2 2026-04-30 04:30 75K
20260430T00Z_MSC_GDPS_DewPointDepression_IsbL-0030_LatLon0.15_PT108H.grib2 2026-04-30 04:30 87K
20260430T00Z_MSC_GDPS_DewPointDepression_IsbL-0050_LatLon0.15_PT108H.grib2 2026-04-30 04:30 384K
20260430T00Z_MSC_GDPS_DewPointDepression_IsbL-0100_LatLon0.15_PT108H.grib2 2026-04-30 04:30 401K
20260430T00Z_MSC_GDPS_DewPointDepression_IsbL-0150_LatLon0.15_PT108H.grib2 2026-04-30 04:30 467K
20260430T00Z_MSC_GDPS_DewPointDepression_IsbL-0175_LatLon0.15_PT108H.grib2 2026-04-30 04:30 576K
20260430T00Z_MSC_GDPS_DewPointDepression_IsbL-0200_LatLon0.15_PT108H.grib2 2026-04-30 04:30 679K
20260430T00Z_MSC_GDPS_DewPointDepression_IsbL-0225_LatLon0.15_PT108H.grib2 2026-04-30 04:30 771K
20260430T00Z_MSC_GDPS_DewPointDepression_IsbL-0250_LatLon0.15_PT108H.grib2 2026-04-30 04:30 858K
20260430T00Z_MSC_GDPS_DewPointDepression_IsbL-0275_LatLon0.15_PT108H.grib2 2026-04-30 04:30 876K
20260430T00Z_MSC_GDPS_DewPointDepression_IsbL-0300_LatLon0.15_PT108H.grib2 2026-04-30 04:30 916K
20260430T00Z_MSC_GDPS_DewPointDepression_IsbL-0350_LatLon0.15_PT108H.grib2 2026-04-30 04:30 950K
20260430T00Z_MSC_GDPS_DewPointDepression_IsbL-0400_LatLon0.15_PT108H.grib2 2026-04-30 04:30 1.0M
20260430T00Z_MSC_GDPS_DewPointDepression_IsbL-0450_LatLon0.15_PT108H.grib2 2026-04-30 04:30 1.0M
20260430T00Z_MSC_GDPS_DewPointDepression_IsbL-0500_LatLon0.15_PT108H.grib2 2026-04-30 04:30 1.0M
20260430T00Z_MSC_GDPS_DewPointDepression_IsbL-0550_LatLon0.15_PT108H.grib2 2026-04-30 04:30 1.0M
20260430T00Z_MSC_GDPS_DewPointDepression_IsbL-0600_LatLon0.15_PT108H.grib2 2026-04-30 04:30 1.0M
20260430T00Z_MSC_GDPS_DewPointDepression_IsbL-0650_LatLon0.15_PT108H.grib2 2026-04-30 04:30 1.1M
20260430T00Z_MSC_GDPS_DewPointDepression_IsbL-0700_LatLon0.15_PT108H.grib2 2026-04-30 04:30 1.1M
20260430T00Z_MSC_GDPS_DewPointDepression_IsbL-0750_LatLon0.15_PT108H.grib2 2026-04-30 04:30 1.1M
20260430T00Z_MSC_GDPS_DewPointDepression_IsbL-0800_LatLon0.15_PT108H.grib2 2026-04-30 04:30 1.2M
20260430T00Z_MSC_GDPS_DewPointDepression_IsbL-0850_LatLon0.15_PT108H.grib2 2026-04-30 04:30 1.2M
20260430T00Z_MSC_GDPS_DewPointDepression_IsbL-0875_LatLon0.15_PT108H.grib2 2026-04-30 04:30 1.1M
20260430T00Z_MSC_GDPS_DewPointDepression_IsbL-0900_LatLon0.15_PT108H.grib2 2026-04-30 04:30 1.1M
20260430T00Z_MSC_GDPS_DewPointDepression_IsbL-0925_LatLon0.15_PT108H.grib2 2026-04-30 04:30 1.0M
20260430T00Z_MSC_GDPS_DewPointDepression_IsbL-0950_LatLon0.15_PT108H.grib2 2026-04-30 04:30 1.0M
20260430T00Z_MSC_GDPS_DewPointDepression_IsbL-0970_LatLon0.15_PT108H.grib2 2026-04-30 04:30 1.0M
20260430T00Z_MSC_GDPS_DewPointDepression_IsbL-0985_LatLon0.15_PT108H.grib2 2026-04-30 04:30 1.0M
20260430T00Z_MSC_GDPS_DewPointDepression_IsbL-1000_LatLon0.15_PT108H.grib2 2026-04-30 04:30 972K
20260430T00Z_MSC_GDPS_DewPointDepression_IsbL-1015_LatLon0.15_PT108H.grib2 2026-04-30 04:30 915K
20260430T00Z_MSC_GDPS_DewPoint_AGL-2m_LatLon0.15_PT108H.grib2 2026-04-30 04:30 612K
20260430T00Z_MSC_GDPS_DownwardLongwaveRadiationFlux-Accum_Sfc_LatLon0.15_PT108H.grib2 2026-04-30 04:30 781K
20260430T00Z_MSC_GDPS_DownwardShortwaveRadiationFlux-Accum_NTAtm_LatLon0.15_PT108H.grib2 2026-04-30 04:30 299K
20260430T00Z_MSC_GDPS_DownwardShortwaveRadiationFlux-Accum_Sfc_LatLon0.15_PT108H.grib2 2026-04-30 04:30 1.0M
20260430T00Z_MSC_GDPS_FreezingRain-Accum12h_Sfc_LatLon0.15_PT108H.grib2 2026-04-30 04:30 79K
20260430T00Z_MSC_GDPS_FreezingRain-Accum1h_Sfc_LatLon0.15_PT108H.grib2 2026-04-30 04:30 44K
20260430T00Z_MSC_GDPS_FreezingRain-Accum24h_Sfc_LatLon0.15_PT108H.grib2 2026-04-30 04:30 136K
20260430T00Z_MSC_GDPS_FreezingRain-Accum3h_Sfc_LatLon0.15_PT108H.grib2 2026-04-30 04:30 45K
20260430T00Z_MSC_GDPS_FreezingRain-Accum6h_Sfc_LatLon0.15_PT108H.grib2 2026-04-30 04:30 66K
20260430T00Z_MSC_GDPS_FreezingRain-Accum_Sfc_LatLon0.15_PT108H.grib2 2026-04-30 04:30 377K
20260430T00Z_MSC_GDPS_GeopotentialHeight_IsbL-0001_LatLon0.15_PT108H.grib2 2026-04-30 04:30 422K
20260430T00Z_MSC_GDPS_GeopotentialHeight_IsbL-0005_LatLon0.15_PT108H.grib2 2026-04-30 04:30 484K
20260430T00Z_MSC_GDPS_GeopotentialHeight_IsbL-0010_LatLon0.15_PT108H.grib2 2026-04-30 04:30 476K
20260430T00Z_MSC_GDPS_GeopotentialHeight_IsbL-0020_LatLon0.15_PT108H.grib2 2026-04-30 04:30 413K
20260430T00Z_MSC_GDPS_GeopotentialHeight_IsbL-0030_LatLon0.15_PT108H.grib2 2026-04-30 04:30 572K
20260430T00Z_MSC_GDPS_GeopotentialHeight_IsbL-0050_LatLon0.15_PT108H.grib2 2026-04-30 04:30 572K
20260430T00Z_MSC_GDPS_GeopotentialHeight_IsbL-0100_LatLon0.15_PT108H.grib2 2026-04-30 04:30 610K
20260430T00Z_MSC_GDPS_GeopotentialHeight_IsbL-0150_LatLon0.15_PT108H.grib2 2026-04-30 04:30 629K
20260430T00Z_MSC_GDPS_GeopotentialHeight_IsbL-0175_LatLon0.15_PT108H.grib2 2026-04-30 04:30 632K
20260430T00Z_MSC_GDPS_GeopotentialHeight_IsbL-0200_LatLon0.15_PT108H.grib2 2026-04-30 04:30 637K
20260430T00Z_MSC_GDPS_GeopotentialHeight_IsbL-0225_LatLon0.15_PT108H.grib2 2026-04-30 04:30 634K
20260430T00Z_MSC_GDPS_GeopotentialHeight_IsbL-0250_LatLon0.15_PT108H.grib2 2026-04-30 04:30 643K
20260430T00Z_MSC_GDPS_GeopotentialHeight_IsbL-0275_LatLon0.15_PT108H.grib2 2026-04-30 04:30 642K
20260430T00Z_MSC_GDPS_GeopotentialHeight_IsbL-0300_LatLon0.15_PT108H.grib2 2026-04-30 04:30 640K
20260430T00Z_MSC_GDPS_GeopotentialHeight_IsbL-0350_LatLon0.15_PT108H.grib2 2026-04-30 04:30 629K
20260430T00Z_MSC_GDPS_GeopotentialHeight_IsbL-0400_LatLon0.15_PT108H.grib2 2026-04-30 04:30 621K
20260430T00Z_MSC_GDPS_GeopotentialHeight_IsbL-0450_LatLon0.15_PT108H.grib2 2026-04-30 04:30 612K
20260430T00Z_MSC_GDPS_GeopotentialHeight_IsbL-0500_LatLon0.15_PT108H.grib2 2026-04-30 04:30 604K
20260430T00Z_MSC_GDPS_GeopotentialHeight_IsbL-0550_LatLon0.15_PT108H.grib2 2026-04-30 04:30 529K
20260430T00Z_MSC_GDPS_GeopotentialHeight_IsbL-0600_LatLon0.15_PT108H.grib2 2026-04-30 04:30 524K
20260430T00Z_MSC_GDPS_GeopotentialHeight_IsbL-0650_LatLon0.15_PT108H.grib2 2026-04-30 04:30 691K
20260430T00Z_MSC_GDPS_GeopotentialHeight_IsbL-0700_LatLon0.15_PT108H.grib2 2026-04-30 04:30 686K
20260430T00Z_MSC_GDPS_GeopotentialHeight_IsbL-0750_LatLon0.15_PT108H.grib2 2026-04-30 04:30 695K
20260430T00Z_MSC_GDPS_GeopotentialHeight_IsbL-0800_LatLon0.15_PT108H.grib2 2026-04-30 04:30 706K
20260430T00Z_MSC_GDPS_GeopotentialHeight_IsbL-0850_LatLon0.15_PT108H.grib2 2026-04-30 04:30 712K
20260430T00Z_MSC_GDPS_GeopotentialHeight_IsbL-0875_LatLon0.15_PT108H.grib2 2026-04-30 04:30 716K
20260430T00Z_MSC_GDPS_GeopotentialHeight_IsbL-0900_LatLon0.15_PT108H.grib2 2026-04-30 04:30 724K
20260430T00Z_MSC_GDPS_GeopotentialHeight_IsbL-0925_LatLon0.15_PT108H.grib2 2026-04-30 04:30 731K
20260430T00Z_MSC_GDPS_GeopotentialHeight_IsbL-0950_LatLon0.15_PT108H.grib2 2026-04-30 04:30 738K
20260430T00Z_MSC_GDPS_GeopotentialHeight_IsbL-0970_LatLon0.15_PT108H.grib2 2026-04-30 04:30 749K
20260430T00Z_MSC_GDPS_GeopotentialHeight_IsbL-0985_LatLon0.15_PT108H.grib2 2026-04-30 04:30 763K
20260430T00Z_MSC_GDPS_GeopotentialHeight_IsbL-1000_LatLon0.15_PT108H.grib2 2026-04-30 04:30 785K
20260430T00Z_MSC_GDPS_GeopotentialHeight_IsbL-1015_LatLon0.15_PT108H.grib2 2026-04-30 04:30 808K
20260430T00Z_MSC_GDPS_Humidex_Sfc_LatLon0.15_PT108H.grib2 2026-04-30 04:30 5.3M
20260430T00Z_MSC_GDPS_IcePellets-Accum12h_Sfc_LatLon0.15_PT108H.grib2 2026-04-30 04:30 14K
20260430T00Z_MSC_GDPS_IcePellets-Accum1h_Sfc_LatLon0.15_PT108H.grib2 2026-04-30 04:30 8.0K
20260430T00Z_MSC_GDPS_IcePellets-Accum24h_Sfc_LatLon0.15_PT108H.grib2 2026-04-30 04:30 18K
20260430T00Z_MSC_GDPS_IcePellets-Accum3h_Sfc_LatLon0.15_PT108H.grib2 2026-04-30 04:30 9.8K
20260430T00Z_MSC_GDPS_IcePellets-Accum6h_Sfc_LatLon0.15_PT108H.grib2 2026-04-30 04:30 13K
20260430T00Z_MSC_GDPS_IcePellets-Accum_Sfc_LatLon0.15_PT108H.grib2 2026-04-30 04:30 83K
20260430T00Z_MSC_GDPS_KIndex_Sfc_LatLon0.15_PT108H.grib2 2026-04-30 04:30 6.5M
20260430T00Z_MSC_GDPS_LatentHeatNetFlux_Sfc_LatLon0.15_PT108H.grib2 2026-04-30 04:30 554K
20260430T00Z_MSC_GDPS_LiftedIndex-MU-VT_IsbL-0500_LatLon0.15_PT108H.grib2 2026-04-30 04:30 5.4M
20260430T00Z_MSC_GDPS_NetLongwaveRadiationFlux-Accum_Sfc_LatLon0.15_PT108H.grib2 2026-04-30 04:30 1.0M
20260430T00Z_MSC_GDPS_NetShortwaveRadiationFlux-Accum_Sfc_LatLon0.15_PT108H.grib2 2026-04-30 04:30 968K
20260430T00Z_MSC_GDPS_O3MixingRatio_Sfc_LatLon0.15_PT108H.grib2 2026-04-30 04:51 1.9M
20260430T00Z_MSC_GDPS_O3_EAtm_LatLon0.15_PT108H.grib2 2026-04-30 04:51 2.4M
20260430T00Z_MSC_GDPS_PlanetaryBoundaryLayerHeight_Sfc_LatLon0.15_PT108H.grib2 2026-04-30 04:30 2.5M
20260430T00Z_MSC_GDPS_Precip-Accum12h_Sfc_LatLon0.15_PT108H.grib2 2026-04-30 04:30 4.0M
20260430T00Z_MSC_GDPS_Precip-Accum1h_Sfc_LatLon0.15_PT108H.grib2 2026-04-30 04:30 3.3M
20260430T00Z_MSC_GDPS_Precip-Accum24h_Sfc_LatLon0.15_PT108H.grib2 2026-04-30 04:30 4.5M
20260430T00Z_MSC_GDPS_Precip-Accum3h_Sfc_LatLon0.15_PT108H.grib2 2026-04-30 04:30 3.5M
20260430T00Z_MSC_GDPS_Precip-Accum6h_Sfc_LatLon0.15_PT108H.grib2 2026-04-30 04:30 3.8M
20260430T00Z_MSC_GDPS_Precip-Accum_Sfc_LatLon0.15_PT108H.grib2 2026-04-30 04:30 5.4M
20260430T00Z_MSC_GDPS_PrecipRate_Sfc_LatLon0.15_PT108H.grib2 2026-04-30 04:30 3.1M
20260430T00Z_MSC_GDPS_PrecipType-Instant_Sfc_LatLon0.15_PT108H.grib2 2026-04-30 04:30 1.6M
20260430T00Z_MSC_GDPS_Pressure_MSL_LatLon0.15_PT108H.grib2 2026-04-30 04:30 818K
20260430T00Z_MSC_GDPS_Pressure_PVU-1.5_LatLon0.15_PT108H.grib2 2026-04-30 04:30 5.8M
20260430T00Z_MSC_GDPS_Pressure_PVU-1_LatLon0.15_PT108H.grib2 2026-04-30 04:30 6.0M
20260430T00Z_MSC_GDPS_Pressure_PVU-2_LatLon0.15_PT108H.grib2 2026-04-30 04:30 5.6M
20260430T00Z_MSC_GDPS_Pressure_Sfc_LatLon0.15_PT108H.grib2 2026-04-30 04:30 1.1M
20260430T00Z_MSC_GDPS_RadiativeTemp_Sfc_LatLon0.15_PT108H.grib2 2026-04-30 04:30 502K
20260430T00Z_MSC_GDPS_Rain-Accum12h_Sfc_LatLon0.15_PT108H.grib2 2026-04-30 04:30 2.7M
20260430T00Z_MSC_GDPS_Rain-Accum1h_Sfc_LatLon0.15_PT108H.grib2 2026-04-30 04:30 1.7M
20260430T00Z_MSC_GDPS_Rain-Accum24h_Sfc_LatLon0.15_PT108H.grib2 2026-04-30 04:30 3.1M
20260430T00Z_MSC_GDPS_Rain-Accum3h_Sfc_LatLon0.15_PT108H.grib2 2026-04-30 04:30 1.9M
20260430T00Z_MSC_GDPS_Rain-Accum6h_Sfc_LatLon0.15_PT108H.grib2 2026-04-30 04:30 2.5M
20260430T00Z_MSC_GDPS_Rain-Accum_Sfc_LatLon0.15_PT108H.grib2 2026-04-30 04:30 4.2M
20260430T00Z_MSC_GDPS_RelativeHumidity_AGL-2m_LatLon0.15_PT108H.grib2 2026-04-30 04:30 1.1M
20260430T00Z_MSC_GDPS_RelativeHumidity_IsbL-0010_LatLon0.15_PT108H.grib2 2026-04-30 04:30 132K
20260430T00Z_MSC_GDPS_RelativeHumidity_IsbL-0020_LatLon0.15_PT108H.grib2 2026-04-30 04:30 165K
20260430T00Z_MSC_GDPS_RelativeHumidity_IsbL-0030_LatLon0.15_PT108H.grib2 2026-04-30 04:30 269K
20260430T00Z_MSC_GDPS_RelativeHumidity_IsbL-0050_LatLon0.15_PT108H.grib2 2026-04-30 04:30 339K
20260430T00Z_MSC_GDPS_RelativeHumidity_IsbL-0100_LatLon0.15_PT108H.grib2 2026-04-30 04:30 500K
20260430T00Z_MSC_GDPS_RelativeHumidity_IsbL-0150_LatLon0.15_PT108H.grib2 2026-04-30 04:30 661K
20260430T00Z_MSC_GDPS_RelativeHumidity_IsbL-0175_LatLon0.15_PT108H.grib2 2026-04-30 04:30 785K
20260430T00Z_MSC_GDPS_RelativeHumidity_IsbL-0200_LatLon0.15_PT108H.grib2 2026-04-30 04:30 705K
20260430T00Z_MSC_GDPS_RelativeHumidity_IsbL-0225_LatLon0.15_PT108H.grib2 2026-04-30 04:30 789K
20260430T00Z_MSC_GDPS_RelativeHumidity_IsbL-0250_LatLon0.15_PT108H.grib2 2026-04-30 04:30 860K
20260430T00Z_MSC_GDPS_RelativeHumidity_IsbL-0275_LatLon0.15_PT108H.grib2 2026-04-30 04:30 884K
20260430T00Z_MSC_GDPS_RelativeHumidity_IsbL-0300_LatLon0.15_PT108H.grib2 2026-04-30 04:30 925K
20260430T00Z_MSC_GDPS_RelativeHumidity_IsbL-0350_LatLon0.15_PT108H.grib2 2026-04-30 04:30 947K
20260430T00Z_MSC_GDPS_RelativeHumidity_IsbL-0400_LatLon0.15_PT108H.grib2 2026-04-30 04:30 968K
20260430T00Z_MSC_GDPS_RelativeHumidity_IsbL-0450_LatLon0.15_PT108H.grib2 2026-04-30 04:30 1.0M
20260430T00Z_MSC_GDPS_RelativeHumidity_IsbL-0500_LatLon0.15_PT108H.grib2 2026-04-30 04:30 1.0M
20260430T00Z_MSC_GDPS_RelativeHumidity_IsbL-0550_LatLon0.15_PT108H.grib2 2026-04-30 04:30 1.0M
20260430T00Z_MSC_GDPS_RelativeHumidity_IsbL-0600_LatLon0.15_PT108H.grib2 2026-04-30 04:30 1.0M
20260430T00Z_MSC_GDPS_RelativeHumidity_IsbL-0650_LatLon0.15_PT108H.grib2 2026-04-30 04:30 1.1M
20260430T00Z_MSC_GDPS_RelativeHumidity_IsbL-0700_LatLon0.15_PT108H.grib2 2026-04-30 04:30 1.1M
20260430T00Z_MSC_GDPS_RelativeHumidity_IsbL-0750_LatLon0.15_PT108H.grib2 2026-04-30 04:30 1.2M
20260430T00Z_MSC_GDPS_RelativeHumidity_IsbL-0800_LatLon0.15_PT108H.grib2 2026-04-30 04:30 1.3M
20260430T00Z_MSC_GDPS_RelativeHumidity_IsbL-0850_LatLon0.15_PT108H.grib2 2026-04-30 04:30 1.3M
20260430T00Z_MSC_GDPS_RelativeHumidity_IsbL-0875_LatLon0.15_PT108H.grib2 2026-04-30 04:30 1.3M
20260430T00Z_MSC_GDPS_RelativeHumidity_IsbL-0900_LatLon0.15_PT108H.grib2 2026-04-30 04:30 1.2M
20260430T00Z_MSC_GDPS_RelativeHumidity_IsbL-0925_LatLon0.15_PT108H.grib2 2026-04-30 04:30 1.2M
20260430T00Z_MSC_GDPS_RelativeHumidity_IsbL-0950_LatLon0.15_PT108H.grib2 2026-04-30 04:30 1.2M
20260430T00Z_MSC_GDPS_RelativeHumidity_IsbL-0970_LatLon0.15_PT108H.grib2 2026-04-30 04:30 1.2M
20260430T00Z_MSC_GDPS_RelativeHumidity_IsbL-0985_LatLon0.15_PT108H.grib2 2026-04-30 04:30 1.1M
20260430T00Z_MSC_GDPS_RelativeHumidity_IsbL-1000_LatLon0.15_PT108H.grib2 2026-04-30 04:30 1.1M
20260430T00Z_MSC_GDPS_RelativeHumidity_IsbL-1015_LatLon0.15_PT108H.grib2 2026-04-30 04:30 1.0M
20260430T00Z_MSC_GDPS_RelativeVorticity_IsbL-0200_LatLon0.15_PT108H.grib2 2026-04-30 04:30 1.5M
20260430T00Z_MSC_GDPS_RelativeVorticity_IsbL-0250_LatLon0.15_PT108H.grib2 2026-04-30 04:30 1.6M
20260430T00Z_MSC_GDPS_RelativeVorticity_IsbL-0500_LatLon0.15_PT108H.grib2 2026-04-30 04:30 1.4M
20260430T00Z_MSC_GDPS_RelativeVorticity_IsbL-0700_LatLon0.15_PT108H.grib2 2026-04-30 04:30 1.3M
20260430T00Z_MSC_GDPS_RelativeVorticity_IsbL-0850_LatLon0.15_PT108H.grib2 2026-04-30 04:30 1.6M
20260430T00Z_MSC_GDPS_Runoff-Accum_Sfc_LatLon0.15_PT108H.grib2 2026-04-30 04:30 136K
20260430T00Z_MSC_GDPS_SensibleHeatNetFlux_Sfc_LatLon0.15_PT108H.grib2 2026-04-30 04:30 656K
20260430T00Z_MSC_GDPS_ShowalterIndex_IsbL-0500_LatLon0.15_PT108H.grib2 2026-04-30 04:30 6.2M
20260430T00Z_MSC_GDPS_Snow-Accum12h_Sfc_LatLon0.15_PT108H.grib2 2026-04-30 04:30 1.4M
20260430T00Z_MSC_GDPS_Snow-Accum1h_Sfc_LatLon0.15_PT108H.grib2 2026-04-30 04:30 1.1M
20260430T00Z_MSC_GDPS_Snow-Accum24h_Sfc_LatLon0.15_PT108H.grib2 2026-04-30 04:30 1.6M
20260430T00Z_MSC_GDPS_Snow-Accum3h_Sfc_LatLon0.15_PT108H.grib2 2026-04-30 04:30 1.1M
20260430T00Z_MSC_GDPS_Snow-Accum6h_Sfc_LatLon0.15_PT108H.grib2 2026-04-30 04:30 1.4M
20260430T00Z_MSC_GDPS_Snow-Accum_Sfc_LatLon0.15_PT108H.grib2 2026-04-30 04:30 2.0M
20260430T00Z_MSC_GDPS_SnowDensity_Sfc_LatLon0.15_PT108H.grib2 2026-04-30 04:30 265K
20260430T00Z_MSC_GDPS_SnowDepth_Sfc_LatLon0.15_PT108H.grib2 2026-04-30 04:30 1.7M
20260430T00Z_MSC_GDPS_SoilTemp_DBS-0to10cm_LatLon0.15_PT108H.grib2 2026-04-30 04:30 513K
20260430T00Z_MSC_GDPS_SoilTemp_Sfc_LatLon0.15_PT108H.grib2 2026-04-30 04:30 589K
20260430T00Z_MSC_GDPS_SoilVolumetricIceContent_Sfc_LatLon0.15_PT108H.grib2 2026-04-30 04:30 196K
20260430T00Z_MSC_GDPS_SoilVolumetricWaterContent_DBS-0to10cm_LatLon0.15_PT108H.grib2 2026-04-30 04:30 589K
20260430T00Z_MSC_GDPS_SoilVolumetricWaterContent_DBS-0to1cm_LatLon0.15_PT108H.grib2 2026-04-30 04:30 651K
20260430T00Z_MSC_GDPS_SpecificHumidity_AGL-120m_LatLon0.15_PT108H.grib2 2026-04-30 04:30 1.1M
20260430T00Z_MSC_GDPS_SpecificHumidity_AGL-2m_LatLon0.15_PT108H.grib2 2026-04-30 04:30 1.2M
20260430T00Z_MSC_GDPS_SpecificHumidity_AGL-40m_LatLon0.15_PT108H.grib2 2026-04-30 04:30 1.1M
20260430T00Z_MSC_GDPS_SpecificHumidity_AGL-80m_LatLon0.15_PT108H.grib2 2026-04-30 04:30 1.1M
20260430T00Z_MSC_GDPS_SpecificHumidity_IsbL-0001_LatLon0.15_PT108H.grib2 2026-04-30 04:30 1.2M
20260430T00Z_MSC_GDPS_SpecificHumidity_IsbL-0005_LatLon0.15_PT108H.grib2 2026-04-30 04:30 1.2M
20260430T00Z_MSC_GDPS_SpecificHumidity_IsbL-0010_LatLon0.15_PT108H.grib2 2026-04-30 04:30 1.3M
20260430T00Z_MSC_GDPS_SpecificHumidity_IsbL-0020_LatLon0.15_PT108H.grib2 2026-04-30 04:30 1.3M
20260430T00Z_MSC_GDPS_SpecificHumidity_IsbL-0030_LatLon0.15_PT108H.grib2 2026-04-30 04:30 1.6M
20260430T00Z_MSC_GDPS_SpecificHumidity_IsbL-0050_LatLon0.15_PT108H.grib2 2026-04-30 04:30 1.3M
20260430T00Z_MSC_GDPS_SpecificHumidity_IsbL-0100_LatLon0.15_PT108H.grib2 2026-04-30 04:30 1.3M
20260430T00Z_MSC_GDPS_SpecificHumidity_IsbL-0150_LatLon0.15_PT108H.grib2 2026-04-30 04:30 1.3M
20260430T00Z_MSC_GDPS_SpecificHumidity_IsbL-0175_LatLon0.15_PT108H.grib2 2026-04-30 04:30 1.3M
20260430T00Z_MSC_GDPS_SpecificHumidity_IsbL-0200_LatLon0.15_PT108H.grib2 2026-04-30 04:30 1.3M
20260430T00Z_MSC_GDPS_SpecificHumidity_IsbL-0225_LatLon0.15_PT108H.grib2 2026-04-30 04:30 1.3M
20260430T00Z_MSC_GDPS_SpecificHumidity_IsbL-0250_LatLon0.15_PT108H.grib2 2026-04-30 04:30 1.4M
20260430T00Z_MSC_GDPS_SpecificHumidity_IsbL-0275_LatLon0.15_PT108H.grib2 2026-04-30 04:30 1.3M
20260430T00Z_MSC_GDPS_SpecificHumidity_IsbL-0300_LatLon0.15_PT108H.grib2 2026-04-30 04:30 1.2M
20260430T00Z_MSC_GDPS_SpecificHumidity_IsbL-0350_LatLon0.15_PT108H.grib2 2026-04-30 04:30 1.2M
20260430T00Z_MSC_GDPS_SpecificHumidity_IsbL-0400_LatLon0.15_PT108H.grib2 2026-04-30 04:30 1.4M
20260430T00Z_MSC_GDPS_SpecificHumidity_IsbL-0450_LatLon0.15_PT108H.grib2 2026-04-30 04:30 1.6M
20260430T00Z_MSC_GDPS_SpecificHumidity_IsbL-0500_LatLon0.15_PT108H.grib2 2026-04-30 04:30 1.4M
20260430T00Z_MSC_GDPS_SpecificHumidity_IsbL-0550_LatLon0.15_PT108H.grib2 2026-04-30 04:30 1.6M
20260430T00Z_MSC_GDPS_SpecificHumidity_IsbL-0600_LatLon0.15_PT108H.grib2 2026-04-30 04:30 1.7M
20260430T00Z_MSC_GDPS_SpecificHumidity_IsbL-0650_LatLon0.15_PT108H.grib2 2026-04-30 04:30 1.5M
20260430T00Z_MSC_GDPS_SpecificHumidity_IsbL-0700_LatLon0.15_PT108H.grib2 2026-04-30 04:30 1.6M
20260430T00Z_MSC_GDPS_SpecificHumidity_IsbL-0750_LatLon0.15_PT108H.grib2 2026-04-30 04:30 1.7M
20260430T00Z_MSC_GDPS_SpecificHumidity_IsbL-0800_LatLon0.15_PT108H.grib2 2026-04-30 04:30 1.9M
20260430T00Z_MSC_GDPS_SpecificHumidity_IsbL-0850_LatLon0.15_PT108H.grib2 2026-04-30 04:30 1.9M
20260430T00Z_MSC_GDPS_SpecificHumidity_IsbL-0875_LatLon0.15_PT108H.grib2 2026-04-30 04:30 1.9M
20260430T00Z_MSC_GDPS_SpecificHumidity_IsbL-0900_LatLon0.15_PT108H.grib2 2026-04-30 04:30 1.9M
20260430T00Z_MSC_GDPS_SpecificHumidity_IsbL-0925_LatLon0.15_PT108H.grib2 2026-04-30 04:30 1.6M
20260430T00Z_MSC_GDPS_SpecificHumidity_IsbL-0950_LatLon0.15_PT108H.grib2 2026-04-30 04:30 1.6M
20260430T00Z_MSC_GDPS_SpecificHumidity_IsbL-0970_LatLon0.15_PT108H.grib2 2026-04-30 04:30 1.5M
20260430T00Z_MSC_GDPS_SpecificHumidity_IsbL-0985_LatLon0.15_PT108H.grib2 2026-04-30 04:30 1.5M
20260430T00Z_MSC_GDPS_SpecificHumidity_IsbL-1000_LatLon0.15_PT108H.grib2 2026-04-30 04:30 1.5M
20260430T00Z_MSC_GDPS_SpecificHumidity_IsbL-1015_LatLon0.15_PT108H.grib2 2026-04-30 04:30 1.5M
20260430T00Z_MSC_GDPS_SpecificHumidity_Sfc_LatLon0.15_PT108H.grib2 2026-04-30 04:30 682K
20260430T00Z_MSC_GDPS_Thickness_IsbL-0850to0700_LatLon0.15_PT108H.grib2 2026-04-30 04:30 470K
20260430T00Z_MSC_GDPS_Thickness_IsbL-1000to0500_LatLon0.15_PT108H.grib2 2026-04-30 04:30 374K
20260430T00Z_MSC_GDPS_Thickness_IsbL-1000to0850_LatLon0.15_PT108H.grib2 2026-04-30 04:30 491K
20260430T00Z_MSC_GDPS_TotalCloudCover_Sfc_LatLon0.15_PT108H.grib2 2026-04-30 04:30 828K
20260430T00Z_MSC_GDPS_TotalTotalsIndex_Sfc_LatLon0.15_PT108H.grib2 2026-04-30 04:30 6.2M
20260430T00Z_MSC_GDPS_UVIndex-ClearSky_Sfc_LatLon0.15_PT108H.grib2 2026-04-30 04:51 1.0M
20260430T00Z_MSC_GDPS_UVIndex_Sfc_LatLon0.15_PT108H.grib2 2026-04-30 04:51 1.4M
20260430T00Z_MSC_GDPS_UpwardLongwaveRadiationFlux_NTAtm_LatLon0.15_PT108H.grib2 2026-04-30 04:30 839K
20260430T00Z_MSC_GDPS_VerticalVelocity_IsbL-0200_LatLon0.15_PT108H.grib2 2026-04-30 04:30 1.2M
20260430T00Z_MSC_GDPS_VerticalVelocity_IsbL-0250_LatLon0.15_PT108H.grib2 2026-04-30 04:30 1.3M
20260430T00Z_MSC_GDPS_VerticalVelocity_IsbL-0500_LatLon0.15_PT108H.grib2 2026-04-30 04:30 1.0M
20260430T00Z_MSC_GDPS_VerticalVelocity_IsbL-0600_LatLon0.15_PT108H.grib2 2026-04-30 04:30 1.1M
20260430T00Z_MSC_GDPS_VerticalVelocity_IsbL-0700_LatLon0.15_PT108H.grib2 2026-04-30 04:30 1.4M
20260430T00Z_MSC_GDPS_VerticalVelocity_IsbL-0850_LatLon0.15_PT108H.grib2 2026-04-30 04:30 1.6M
20260430T00Z_MSC_GDPS_WindChill_Sfc_LatLon0.15_PT108H.grib2 2026-04-30 04:30 5.3M
20260430T00Z_MSC_GDPS_WindDir_AGL-10m_LatLon0.15_PT108H.grib2 2026-04-30 04:30 1.3M
20260430T00Z_MSC_GDPS_WindDir_AGL-120m_LatLon0.15_PT108H.grib2 2026-04-30 04:30 1.3M
20260430T00Z_MSC_GDPS_WindDir_AGL-40m_LatLon0.15_PT108H.grib2 2026-04-30 04:30 1.4M
20260430T00Z_MSC_GDPS_WindDir_AGL-80m_LatLon0.15_PT108H.grib2 2026-04-30 04:30 1.4M
20260430T00Z_MSC_GDPS_WindDir_IsbL-0001_LatLon0.15_PT108H.grib2 2026-04-30 04:30 672K
20260430T00Z_MSC_GDPS_WindDir_IsbL-0005_LatLon0.15_PT108H.grib2 2026-04-30 04:30 815K
20260430T00Z_MSC_GDPS_WindDir_IsbL-0010_LatLon0.15_PT108H.grib2 2026-04-30 04:30 850K
20260430T00Z_MSC_GDPS_WindDir_IsbL-0020_LatLon0.15_PT108H.grib2 2026-04-30 04:30 951K
20260430T00Z_MSC_GDPS_WindDir_IsbL-0030_LatLon0.15_PT108H.grib2 2026-04-30 04:30 939K
20260430T00Z_MSC_GDPS_WindDir_IsbL-0050_LatLon0.15_PT108H.grib2 2026-04-30 04:30 941K
20260430T00Z_MSC_GDPS_WindDir_IsbL-0100_LatLon0.15_PT108H.grib2 2026-04-30 04:30 1.0M
20260430T00Z_MSC_GDPS_WindDir_IsbL-0150_LatLon0.15_PT108H.grib2 2026-04-30 04:30 1.0M
20260430T00Z_MSC_GDPS_WindDir_IsbL-0175_LatLon0.15_PT108H.grib2 2026-04-30 04:30 1.0M
20260430T00Z_MSC_GDPS_WindDir_IsbL-0200_LatLon0.15_PT108H.grib2 2026-04-30 04:30 1.1M
20260430T00Z_MSC_GDPS_WindDir_IsbL-0225_LatLon0.15_PT108H.grib2 2026-04-30 04:30 1.1M
20260430T00Z_MSC_GDPS_WindDir_IsbL-0250_LatLon0.15_PT108H.grib2 2026-04-30 04:30 1.1M
20260430T00Z_MSC_GDPS_WindDir_IsbL-0275_LatLon0.15_PT108H.grib2 2026-04-30 04:30 1.2M
20260430T00Z_MSC_GDPS_WindDir_IsbL-0300_LatLon0.15_PT108H.grib2 2026-04-30 04:30 1.2M
20260430T00Z_MSC_GDPS_WindDir_IsbL-0350_LatLon0.15_PT108H.grib2 2026-04-30 04:30 1.2M
20260430T00Z_MSC_GDPS_WindDir_IsbL-0400_LatLon0.15_PT108H.grib2 2026-04-30 04:30 1.3M
20260430T00Z_MSC_GDPS_WindDir_IsbL-0450_LatLon0.15_PT108H.grib2 2026-04-30 04:30 1.3M
20260430T00Z_MSC_GDPS_WindDir_IsbL-0500_LatLon0.15_PT108H.grib2 2026-04-30 04:30 1.3M
20260430T00Z_MSC_GDPS_WindDir_IsbL-0550_LatLon0.15_PT108H.grib2 2026-04-30 04:30 1.4M
20260430T00Z_MSC_GDPS_WindDir_IsbL-0600_LatLon0.15_PT108H.grib2 2026-04-30 04:30 1.4M
20260430T00Z_MSC_GDPS_WindDir_IsbL-0650_LatLon0.15_PT108H.grib2 2026-04-30 04:30 1.5M
20260430T00Z_MSC_GDPS_WindDir_IsbL-0700_LatLon0.15_PT108H.grib2 2026-04-30 04:30 1.6M
20260430T00Z_MSC_GDPS_WindDir_IsbL-0750_LatLon0.15_PT108H.grib2 2026-04-30 04:30 1.7M
20260430T00Z_MSC_GDPS_WindDir_IsbL-0800_LatLon0.15_PT108H.grib2 2026-04-30 04:30 1.8M
20260430T00Z_MSC_GDPS_WindDir_IsbL-0850_LatLon0.15_PT108H.grib2 2026-04-30 04:30 1.9M
20260430T00Z_MSC_GDPS_WindDir_IsbL-0875_LatLon0.15_PT108H.grib2 2026-04-30 04:30 1.9M
20260430T00Z_MSC_GDPS_WindDir_IsbL-0900_LatLon0.15_PT108H.grib2 2026-04-30 04:30 1.9M
20260430T00Z_MSC_GDPS_WindDir_IsbL-0925_LatLon0.15_PT108H.grib2 2026-04-30 04:30 2.0M
20260430T00Z_MSC_GDPS_WindDir_IsbL-0950_LatLon0.15_PT108H.grib2 2026-04-30 04:30 2.0M
20260430T00Z_MSC_GDPS_WindDir_IsbL-0970_LatLon0.15_PT108H.grib2 2026-04-30 04:30 2.0M
20260430T00Z_MSC_GDPS_WindDir_IsbL-0985_LatLon0.15_PT108H.grib2 2026-04-30 04:30 2.0M
20260430T00Z_MSC_GDPS_WindDir_IsbL-1000_LatLon0.15_PT108H.grib2 2026-04-30 04:30 2.0M
20260430T00Z_MSC_GDPS_WindDir_IsbL-1015_LatLon0.15_PT108H.grib2 2026-04-30 04:30 2.0M
20260430T00Z_MSC_GDPS_WindGust-Max_AGL-10m_LatLon0.15_PT108H.grib2 2026-04-30 04:30 2.2M
20260430T00Z_MSC_GDPS_WindGust-Min_AGL-10m_LatLon0.15_PT108H.grib2 2026-04-30 04:30 2.2M
20260430T00Z_MSC_GDPS_WindGust_AGL-10m_LatLon0.15_PT108H.grib2 2026-04-30 04:30 2.2M
20260430T00Z_MSC_GDPS_WindSpeed_AGL-10m_LatLon0.15_PT108H.grib2 2026-04-30 04:30 1.3M
20260430T00Z_MSC_GDPS_WindSpeed_AGL-120m_LatLon0.15_PT108H.grib2 2026-04-30 04:30 1.2M
20260430T00Z_MSC_GDPS_WindSpeed_AGL-40m_LatLon0.15_PT108H.grib2 2026-04-30 04:30 1.2M
20260430T00Z_MSC_GDPS_WindSpeed_AGL-80m_LatLon0.15_PT108H.grib2 2026-04-30 04:30 1.2M
20260430T00Z_MSC_GDPS_WindSpeed_IsbL-0001_LatLon0.15_PT108H.grib2 2026-04-30 04:30 643K
20260430T00Z_MSC_GDPS_WindSpeed_IsbL-0005_LatLon0.15_PT108H.grib2 2026-04-30 04:30 691K
20260430T00Z_MSC_GDPS_WindSpeed_IsbL-0010_LatLon0.15_PT108H.grib2 2026-04-30 04:30 625K
20260430T00Z_MSC_GDPS_WindSpeed_IsbL-0020_LatLon0.15_PT108H.grib2 2026-04-30 04:30 857K
20260430T00Z_MSC_GDPS_WindSpeed_IsbL-0030_LatLon0.15_PT108H.grib2 2026-04-30 04:30 864K
20260430T00Z_MSC_GDPS_WindSpeed_IsbL-0050_LatLon0.15_PT108H.grib2 2026-04-30 04:30 908K
20260430T00Z_MSC_GDPS_WindSpeed_IsbL-0100_LatLon0.15_PT108H.grib2 2026-04-30 04:30 1.1M
20260430T00Z_MSC_GDPS_WindSpeed_IsbL-0150_LatLon0.15_PT108H.grib2 2026-04-30 04:30 945K
20260430T00Z_MSC_GDPS_WindSpeed_IsbL-0175_LatLon0.15_PT108H.grib2 2026-04-30 04:30 1.0M
20260430T00Z_MSC_GDPS_WindSpeed_IsbL-0200_LatLon0.15_PT108H.grib2 2026-04-30 04:30 1.1M
20260430T00Z_MSC_GDPS_WindSpeed_IsbL-0225_LatLon0.15_PT108H.grib2 2026-04-30 04:30 1.1M
20260430T00Z_MSC_GDPS_WindSpeed_IsbL-0250_LatLon0.15_PT108H.grib2 2026-04-30 04:30 1.1M
20260430T00Z_MSC_GDPS_WindSpeed_IsbL-0275_LatLon0.15_PT108H.grib2 2026-04-30 04:30 1.1M
20260430T00Z_MSC_GDPS_WindSpeed_IsbL-0300_LatLon0.15_PT108H.grib2 2026-04-30 04:30 1.1M
20260430T00Z_MSC_GDPS_WindSpeed_IsbL-0350_LatLon0.15_PT108H.grib2 2026-04-30 04:30 1.1M
20260430T00Z_MSC_GDPS_WindSpeed_IsbL-0400_LatLon0.15_PT108H.grib2 2026-04-30 04:30 1.1M
20260430T00Z_MSC_GDPS_WindSpeed_IsbL-0450_LatLon0.15_PT108H.grib2 2026-04-30 04:30 1.1M
20260430T00Z_MSC_GDPS_WindSpeed_IsbL-0500_LatLon0.15_PT108H.grib2 2026-04-30 04:30 1.1M
20260430T00Z_MSC_GDPS_WindSpeed_IsbL-0550_LatLon0.15_PT108H.grib2 2026-04-30 04:30 1.1M
20260430T00Z_MSC_GDPS_WindSpeed_IsbL-0600_LatLon0.15_PT108H.grib2 2026-04-30 04:30 1.1M
20260430T00Z_MSC_GDPS_WindSpeed_IsbL-0650_LatLon0.15_PT108H.grib2 2026-04-30 04:30 1.4M
20260430T00Z_MSC_GDPS_WindSpeed_IsbL-0700_LatLon0.15_PT108H.grib2 2026-04-30 04:30 1.5M
20260430T00Z_MSC_GDPS_WindSpeed_IsbL-0750_LatLon0.15_PT108H.grib2 2026-04-30 04:30 1.6M
20260430T00Z_MSC_GDPS_WindSpeed_IsbL-0800_LatLon0.15_PT108H.grib2 2026-04-30 04:30 1.7M
20260430T00Z_MSC_GDPS_WindSpeed_IsbL-0850_LatLon0.15_PT108H.grib2 2026-04-30 04:30 1.7M
20260430T00Z_MSC_GDPS_WindSpeed_IsbL-0875_LatLon0.15_PT108H.grib2 2026-04-30 04:30 1.8M
20260430T00Z_MSC_GDPS_WindSpeed_IsbL-0900_LatLon0.15_PT108H.grib2 2026-04-30 04:30 1.8M
20260430T00Z_MSC_GDPS_WindSpeed_IsbL-0925_LatLon0.15_PT108H.grib2 2026-04-30 04:30 1.9M
20260430T00Z_MSC_GDPS_WindSpeed_IsbL-0950_LatLon0.15_PT108H.grib2 2026-04-30 04:30 1.9M
20260430T00Z_MSC_GDPS_WindSpeed_IsbL-0970_LatLon0.15_PT108H.grib2 2026-04-30 04:30 1.9M
20260430T00Z_MSC_GDPS_WindSpeed_IsbL-0985_LatLon0.15_PT108H.grib2 2026-04-30 04:30 1.8M
20260430T00Z_MSC_GDPS_WindSpeed_IsbL-1000_LatLon0.15_PT108H.grib2 2026-04-30 04:30 1.8M
20260430T00Z_MSC_GDPS_WindSpeed_IsbL-1015_LatLon0.15_PT108H.grib2 2026-04-30 04:30 1.8M
20260430T00Z_MSC_GDPS_WindU_AGL-10m_LatLon0.15_PT108H.grib2 2026-04-30 04:30 1.6M
20260430T00Z_MSC_GDPS_WindU_AGL-120m_LatLon0.15_PT108H.grib2 2026-04-30 04:30 967K
20260430T00Z_MSC_GDPS_WindU_AGL-40m_LatLon0.15_PT108H.grib2 2026-04-30 04:30 964K
20260430T00Z_MSC_GDPS_WindU_AGL-80m_LatLon0.15_PT108H.grib2 2026-04-30 04:30 968K
20260430T00Z_MSC_GDPS_WindU_IsbL-0001_LatLon0.15_PT108H.grib2 2026-04-30 04:30 500K
20260430T00Z_MSC_GDPS_WindU_IsbL-0005_LatLon0.15_PT108H.grib2 2026-04-30 04:30 687K
20260430T00Z_MSC_GDPS_WindU_IsbL-0010_LatLon0.15_PT108H.grib2 2026-04-30 04:30 698K
20260430T00Z_MSC_GDPS_WindU_IsbL-0020_LatLon0.15_PT108H.grib2 2026-04-30 04:30 728K
20260430T00Z_MSC_GDPS_WindU_IsbL-0030_LatLon0.15_PT108H.grib2 2026-04-30 04:30 738K
20260430T00Z_MSC_GDPS_WindU_IsbL-0050_LatLon0.15_PT108H.grib2 2026-04-30 04:30 768K
20260430T00Z_MSC_GDPS_WindU_IsbL-0100_LatLon0.15_PT108H.grib2 2026-04-30 04:30 866K
20260430T00Z_MSC_GDPS_WindU_IsbL-0150_LatLon0.15_PT108H.grib2 2026-04-30 04:30 1.0M
20260430T00Z_MSC_GDPS_WindU_IsbL-0175_LatLon0.15_PT108H.grib2 2026-04-30 04:30 1.0M
20260430T00Z_MSC_GDPS_WindU_IsbL-0200_LatLon0.15_PT108H.grib2 2026-04-30 04:30 1.0M
20260430T00Z_MSC_GDPS_WindU_IsbL-0225_LatLon0.15_PT108H.grib2 2026-04-30 04:30 849K
20260430T00Z_MSC_GDPS_WindU_IsbL-0250_LatLon0.15_PT108H.grib2 2026-04-30 04:30 853K
20260430T00Z_MSC_GDPS_WindU_IsbL-0275_LatLon0.15_PT108H.grib2 2026-04-30 04:30 882K
20260430T00Z_MSC_GDPS_WindU_IsbL-0300_LatLon0.15_PT108H.grib2 2026-04-30 04:30 875K
20260430T00Z_MSC_GDPS_WindU_IsbL-0350_LatLon0.15_PT108H.grib2 2026-04-30 04:30 886K
20260430T00Z_MSC_GDPS_WindU_IsbL-0400_LatLon0.15_PT108H.grib2 2026-04-30 04:30 889K
20260430T00Z_MSC_GDPS_WindU_IsbL-0450_LatLon0.15_PT108H.grib2 2026-04-30 04:30 1.1M
20260430T00Z_MSC_GDPS_WindU_IsbL-0500_LatLon0.15_PT108H.grib2 2026-04-30 04:30 1.1M
20260430T00Z_MSC_GDPS_WindU_IsbL-0550_LatLon0.15_PT108H.grib2 2026-04-30 04:30 1.1M
20260430T00Z_MSC_GDPS_WindU_IsbL-0600_LatLon0.15_PT108H.grib2 2026-04-30 04:30 1.2M
20260430T00Z_MSC_GDPS_WindU_IsbL-0650_LatLon0.15_PT108H.grib2 2026-04-30 04:30 1.2M
20260430T00Z_MSC_GDPS_WindU_IsbL-0700_LatLon0.15_PT108H.grib2 2026-04-30 04:30 1.2M
20260430T00Z_MSC_GDPS_WindU_IsbL-0750_LatLon0.15_PT108H.grib2 2026-04-30 04:30 1.3M
20260430T00Z_MSC_GDPS_WindU_IsbL-0800_LatLon0.15_PT108H.grib2 2026-04-30 04:30 1.4M
20260430T00Z_MSC_GDPS_WindU_IsbL-0850_LatLon0.15_PT108H.grib2 2026-04-30 04:30 1.4M
20260430T00Z_MSC_GDPS_WindU_IsbL-0875_LatLon0.15_PT108H.grib2 2026-04-30 04:30 1.5M
20260430T00Z_MSC_GDPS_WindU_IsbL-0900_LatLon0.15_PT108H.grib2 2026-04-30 04:30 1.5M
20260430T00Z_MSC_GDPS_WindU_IsbL-0925_LatLon0.15_PT108H.grib2 2026-04-30 04:30 1.5M
20260430T00Z_MSC_GDPS_WindU_IsbL-0950_LatLon0.15_PT108H.grib2 2026-04-30 04:30 1.4M
20260430T00Z_MSC_GDPS_WindU_IsbL-0970_LatLon0.15_PT108H.grib2 2026-04-30 04:30 1.4M
20260430T00Z_MSC_GDPS_WindU_IsbL-0985_LatLon0.15_PT108H.grib2 2026-04-30 04:30 1.4M
20260430T00Z_MSC_GDPS_WindU_IsbL-1000_LatLon0.15_PT108H.grib2 2026-04-30 04:30 1.7M
20260430T00Z_MSC_GDPS_WindU_IsbL-1015_LatLon0.15_PT108H.grib2 2026-04-30 04:30 1.6M
20260430T00Z_MSC_GDPS_WindV_AGL-10m_LatLon0.15_PT108H.grib2 2026-04-30 04:30 1.6M
20260430T00Z_MSC_GDPS_WindV_AGL-120m_LatLon0.15_PT108H.grib2 2026-04-30 04:30 962K
20260430T00Z_MSC_GDPS_WindV_AGL-40m_LatLon0.15_PT108H.grib2 2026-04-30 04:30 955K
20260430T00Z_MSC_GDPS_WindV_AGL-80m_LatLon0.15_PT108H.grib2 2026-04-30 04:30 962K
20260430T00Z_MSC_GDPS_WindV_IsbL-0001_LatLon0.15_PT108H.grib2 2026-04-30 04:30 776K
20260430T00Z_MSC_GDPS_WindV_IsbL-0005_LatLon0.15_PT108H.grib2 2026-04-30 04:30 853K
20260430T00Z_MSC_GDPS_WindV_IsbL-0010_LatLon0.15_PT108H.grib2 2026-04-30 04:30 881K
20260430T00Z_MSC_GDPS_WindV_IsbL-0020_LatLon0.15_PT108H.grib2 2026-04-30 04:30 933K
20260430T00Z_MSC_GDPS_WindV_IsbL-0030_LatLon0.15_PT108H.grib2 2026-04-30 04:30 936K
20260430T00Z_MSC_GDPS_WindV_IsbL-0050_LatLon0.15_PT108H.grib2 2026-04-30 04:30 1.0M
20260430T00Z_MSC_GDPS_WindV_IsbL-0100_LatLon0.15_PT108H.grib2 2026-04-30 04:30 857K
20260430T00Z_MSC_GDPS_WindV_IsbL-0150_LatLon0.15_PT108H.grib2 2026-04-30 04:30 1.0M
20260430T00Z_MSC_GDPS_WindV_IsbL-0175_LatLon0.15_PT108H.grib2 2026-04-30 04:30 1.0M
20260430T00Z_MSC_GDPS_WindV_IsbL-0200_LatLon0.15_PT108H.grib2 2026-04-30 04:30 835K
20260430T00Z_MSC_GDPS_WindV_IsbL-0225_LatLon0.15_PT108H.grib2 2026-04-30 04:30 844K
20260430T00Z_MSC_GDPS_WindV_IsbL-0250_LatLon0.15_PT108H.grib2 2026-04-30 04:30 904K
20260430T00Z_MSC_GDPS_WindV_IsbL-0275_LatLon0.15_PT108H.grib2 2026-04-30 04:30 931K
20260430T00Z_MSC_GDPS_WindV_IsbL-0300_LatLon0.15_PT108H.grib2 2026-04-30 04:30 922K
20260430T00Z_MSC_GDPS_WindV_IsbL-0350_LatLon0.15_PT108H.grib2 2026-04-30 04:30 931K
20260430T00Z_MSC_GDPS_WindV_IsbL-0400_LatLon0.15_PT108H.grib2 2026-04-30 04:30 875K
20260430T00Z_MSC_GDPS_WindV_IsbL-0450_LatLon0.15_PT108H.grib2 2026-04-30 04:30 879K
20260430T00Z_MSC_GDPS_WindV_IsbL-0500_LatLon0.15_PT108H.grib2 2026-04-30 04:30 885K
20260430T00Z_MSC_GDPS_WindV_IsbL-0550_LatLon0.15_PT108H.grib2 2026-04-30 04:30 1.1M
20260430T00Z_MSC_GDPS_WindV_IsbL-0600_LatLon0.15_PT108H.grib2 2026-04-30 04:30 1.1M
20260430T00Z_MSC_GDPS_WindV_IsbL-0650_LatLon0.15_PT108H.grib2 2026-04-30 04:30 1.2M
20260430T00Z_MSC_GDPS_WindV_IsbL-0700_LatLon0.15_PT108H.grib2 2026-04-30 04:30 1.2M
20260430T00Z_MSC_GDPS_WindV_IsbL-0750_LatLon0.15_PT108H.grib2 2026-04-30 04:30 1.3M
20260430T00Z_MSC_GDPS_WindV_IsbL-0800_LatLon0.15_PT108H.grib2 2026-04-30 04:30 1.3M
20260430T00Z_MSC_GDPS_WindV_IsbL-0850_LatLon0.15_PT108H.grib2 2026-04-30 04:30 1.4M
20260430T00Z_MSC_GDPS_WindV_IsbL-0875_LatLon0.15_PT108H.grib2 2026-04-30 04:30 1.4M
20260430T00Z_MSC_GDPS_WindV_IsbL-0900_LatLon0.15_PT108H.grib2 2026-04-30 04:30 1.4M
20260430T00Z_MSC_GDPS_WindV_IsbL-0925_LatLon0.15_PT108H.grib2 2026-04-30 04:30 1.4M
20260430T00Z_MSC_GDPS_WindV_IsbL-0950_LatLon0.15_PT108H.grib2 2026-04-30 04:30 1.4M
20260430T00Z_MSC_GDPS_WindV_IsbL-0970_LatLon0.15_PT108H.grib2 2026-04-30 04:30 1.4M
20260430T00Z_MSC_GDPS_WindV_IsbL-0985_LatLon0.15_PT108H.grib2 2026-04-30 04:30 1.4M
20260430T00Z_MSC_GDPS_WindV_IsbL-1000_LatLon0.15_PT108H.grib2 2026-04-30 04:30 1.7M
20260430T00Z_MSC_GDPS_WindV_IsbL-1015_LatLon0.15_PT108H.grib2 2026-04-30 04:30 1.6M